Location: Cahas Mountain Overlook
(37.0833°N, 80.1000°W)
Time: 01:47:32
(UTC-05:00)

A-11 Canister half - Pass Details

Date: 08 December 2023
Orbit: 1512 x 1687 km, 47.2° (Epoch: 01 March)

Event Time Altitude Azimuth Distance (km) Brightness Sun altitude
Exits shadow 05:58:06 20° 300° (WNW) 3,192 10.0 -16.1°
Maximum altitude 06:05:47 77° 218° (SW) 1,711 9.2 -14.7°
Drops below altitude 10° 06:15:57 10° 134° (SE) 3,943 12.2 -12.8°
Sets 06:19:06 0° 133° (SE) 4,926 13.0 -12.2°
